[[{"header":{"parameterUnit":"m.s-1","parameterCategory":1,"la1":30.2992,"la2":30.254,"lo1":-89.0895,"lo2":-89.0443,"dy":0.0025,"dx":0.0025,"nx":19,"ny":19,"refTime":"2026-04-20T21:00:00:Z","depth":0,"parameterNumber":2,"parameterNumberName":"U-component_of_WINDS"},"data":[0,0,0,-2.7969,-2.797,-2.8003,-2.8003,-2.8063,-2.8063,0,0,0,0,0,0,0,0,0,0,0,-2.7971,-2.7972,-2.7969,-2.7971,-2.8003,-2.8003,-2.8063,-2.8063,0,0,0,0,0,0,0,0,0,0,0,-2.7971,-2.7972,-2.7973,-2.7971,-2.8003,-2.8003,-2.8062,-2.8031,0,0,0,0,0,0,0,0,0,0,-2.7997,-2.8009,-2.7971,-2.7973,-2.7971,-2.8003,-2.8003,-2.803,-2.8033,-2.8056,0,-2.8079,0,-2.8072,-2.8069,-2.8069,0,0,0,-2.7962,-2.8006,-2.8005,-2.7973,-2.7971,-2.8003,-2.7986,-2.8031,-2.8036,-2.8061,-2.808,-2.8082,-2.8073,-2.8069,-2.8069,-2.8229,-2.823,0,0,-2.796,-2.7983,-2.8002,-2.8008,-2.8005,-2.7985,-2.7987,-2.8034,-2.8056,-2.808,-2.8083,-2.8074,-2.807,-2.807,-2.8228,-2.8229,0,0,0,-2.7961,-2.7982,-2.7979,-2.8006,-2.8011,-2.7986,-2.7989,-2.8054,-2.8051,-2.8083,-2.8075,-2.807,-2.8071,-2.8227,-2.8228,-2.8307,0,0,0,-2.7959,-2.7982,-2.7979,-2.7993,-2.801,-2.8033,-2.8008,-2.8048,-2.8052,-2.8075,-2.807,-2.8072,-2.8225,-2.8227,-2.8302,-2.834,0,0,0,-2.7965,-2.7983,-2.7991,-2.7994,-2.8009,-2.8031,-2.8031,-2.8048,-2.8048,-2.8069,-2.8072,-2.8224,-2.8227,-2.8298,-2.8333,-2.8388,0,0,0,-2.7978,-2.8061,-2.7993,-2.8083,-2.8009,-2.808,-2.803,-2.8082,-2.811,-2.807,-2.8225,-2.8228,-2.8296,-2.8328,-2.8384,-2.8439,-2.8464,0,0,-2.8095,-2.8076,-2.8126,-2.8067,-2.8156,-2.8073,-2.8174,-2.8177,-2.8158,-2.8206,-2.821,-2.8304,-2.8332,-2.8387,-2.8599,-2.8619,0,0,0,-2.8171,-2.8208,-2.8227,-2.8254,-2.826,-2.8267,-2.8253,-2.8254,-2.8294,-2.8188,-2.8338,-2.8355,-2.8386,-2.8411,-2.8429,-2.8454,-2.8241,-2.8241,-2.824,-2.8369,-2.8341,-2.8423,-2.8399,-2.8427,-2.8412,-2.8432,-2.8431,-2.8394,-2.843,-2.8444,-2.8576,-2.8606,-2.8619,-2.8646,-2.8471,-2.8472,-2.8472,-2.8472,-2.8538,-2.8585,-2.8535,-2.8597,-2.8567,-2.8618,-2.8608,-2.858,-2.8623,-2.8563,-2.8589,-2.8525,-2.8642,-2.8664,-2.8478,-2.8477,-2.8476,-2.8475,-2.8475,-2.8664,-2.8682,-2.8682,-2.872,-2.8752,-2.8725,-2.8769,-2.874,-2.8712,-2.8739,-2.875,-2.8748,-2.8743,-2.8746,-2.8747,-2.8747,-2.8747,-2.8748,-2.8748,-2.8794,-2.8792,-2.8833,-2.8846,-2.886,-2.8875,-2.8862,-2.8875,-2.8881,-2.8857,-2.8857,-2.8816,-2.8659,-2.862,-2.8755,-2.8754,-2.8753,-2.8752,-2.8752,-2.8975,-2.8929,-2.8993,-2.9007,-2.902,-2.9054,-2.9016,-2.9045,-2.9052,-2.9074,-2.9029,-2.8918,-2.8895,-2.8881,-2.8849,-2.9035,-2.9035,-2.9035,-2.9035,-2.9081,-2.9067,-2.9125,-2.915,-2.9171,-2.9144,-2.9216,-2.9206,-2.9189,-2.9191,-2.916,-2.9115,-2.9102,-2.9087,-2.9069,-2.9038,-2.9268,-2.9268,-2.9269,-2.919,-2.9177,-2.9244,-2.9227,-2.9236,-2.9243,-2.931,-2.934,-2.9311,-2.9277,-2.9193,-2.9183,-2.9109,-2.9086,-2.905,-2.9022,-2.8964,0,0]},{"header":{"parameterUnit":"m.s-1","parameterCategory":1,"la1":30.2992,"la2":30.254,"lo1":-89.0895,"lo2":-89.0443,"dy":0.0025,"dx":0.0025,"nx":19,"ny":19,"refTime":"2026-04-20T21:00:00:Z","depth":0,"parameterNumber":3,"parameterNumberName":"V-component_of_WINDS"},"data":[0,0,0,2.1645,2.1646,2.1705,2.1705,2.1781,2.1782,0,0,0,0,0,0,0,0,0,0,0,2.1629,2.163,2.1644,2.1646,2.1705,2.1705,2.1781,2.1782,0,0,0,0,0,0,0,0,0,0,0,2.1629,2.163,2.163,2.1646,2.1705,2.1705,2.1781,2.1736,0,0,0,0,0,0,0,0,0,0,2.1678,2.1666,2.1629,2.163,2.1647,2.1705,2.1705,2.1734,2.1739,2.1755,0,2.1772,0,2.1778,2.1787,2.1787,0,0,0,2.1644,2.1662,2.1677,2.1631,2.1647,2.1705,2.1678,2.1736,2.1742,2.1762,2.1773,2.1776,2.178,2.1788,2.1788,2.1895,2.1896,0,0,2.1641,2.164,2.1673,2.168,2.1673,2.1676,2.168,2.174,2.1751,2.1774,2.1778,2.1781,2.1788,2.1789,2.1895,2.1896,0,0,0,2.1633,2.1638,2.1651,2.1677,2.1688,2.1678,2.1682,2.1749,2.1753,2.1779,2.1782,2.1789,2.179,2.1894,2.1895,2.1924,0,0,0,2.1631,2.1634,2.165,2.165,2.1687,2.1719,2.169,2.1749,2.1756,2.1782,2.1789,2.179,2.1894,2.1895,2.1922,2.1937,0,0,0,2.1624,2.1633,2.1642,2.165,2.1675,2.1718,2.1726,2.175,2.1758,2.1788,2.1791,2.1893,2.1894,2.192,2.1934,2.1964,0,0,0,2.1617,2.1667,2.1643,2.1699,2.1675,2.1737,2.1726,2.1772,2.1801,2.1789,2.1894,2.1895,2.1919,2.1932,2.1962,2.1989,2.2001,0,0,2.1679,2.1674,2.1707,2.1688,2.1754,2.1728,2.1798,2.1824,2.1827,2.1872,2.1875,2.1923,2.1933,2.1964,2.2069,2.2078,0,0,0,2.1726,2.175,2.1768,2.1797,2.1819,2.1839,2.1855,2.1865,2.1904,2.1851,2.1943,2.1949,2.1967,2.198,2.1988,2.2002,2.1901,2.1901,2.1901,2.1812,2.1814,2.1868,2.1878,2.1906,2.1922,2.1945,2.196,2.1953,2.1975,2.1988,2.2051,2.2066,2.2072,2.2087,2.2004,2.2004,2.2004,2.2004,2.1901,2.1934,2.1925,2.1975,2.1976,2.2018,2.2036,2.2029,2.2067,2.2042,2.2058,2.2028,2.2082,2.2096,2.2006,2.2006,2.2005,2.2005,2.2005,2.1955,2.1971,2.1984,2.2026,2.2058,2.2065,2.2102,2.2102,2.2102,2.2118,2.2131,2.213,2.2128,2.2125,2.2125,2.2125,2.2126,2.2126,2.2126,2.2006,2.2019,2.2051,2.208,2.2099,2.2123,2.2141,2.2159,2.2178,2.2175,2.2175,2.2165,2.2088,2.2068,2.2129,2.2129,2.2128,2.2128,2.2128,2.2092,2.2073,2.2122,2.2141,2.2175,2.2206,2.2207,2.2243,2.2258,2.2275,2.2263,2.2207,2.2201,2.2195,2.2178,2.2263,2.2263,2.2263,2.2263,2.2136,2.2135,2.2185,2.2215,2.2244,2.225,2.2304,2.2319,2.233,2.2339,2.2327,2.2306,2.2299,2.2297,2.2288,2.2272,2.238,2.2381,2.2381,2.2189,2.219,2.2236,2.2249,2.2276,2.2299,2.2349,2.2382,2.2392,2.2385,2.2346,2.2341,2.2306,2.2295,2.2285,2.2271,2.2242,0,0]}]]